Tracking 19176 objects as of 26-May-2018
HD Live streaming from Space Station
objects crossing your sky now

UNHA 3 R/B

Track UNHA 3 R/B now!
10-day predictions


NORAD ID: 39027
Int'l Code: 2012-072B
Perigee: 486.3 km
Apogee: 569.0 km
Inclination: 97.3 °
Period: 95.0 minutes
Semi major axis: 6898 km
RCS: 1.274 m2 (large)
Launch date: December 12, 2012
Source: North Korea (NKOR)
Launch site: Yunsong, DPRK (YUN)

Note: This is a ROCKET BODY
aabbcc
Your satellite tracking list
Your tracking list is empty




NASA's NSSDC Master Catalog

Two Line Element Set (TLE):
1 39027U 12072B   18145.54723081 +.00000383 +00000-0 +22933-4 0  9999
2 39027 097.2733 140.5008 0059978 122.0148 238.6932 15.15160380268838
Source of the keplerian elements: AFSPC